Regional Weather Roundup
Issued by NWS

Home | Current Version | Previous Version | Graphics & Text | Print | Product List | Glossary On
Versions: 1 2 3 4 5 6 7 8 9 10 11 12 13 14 15 16 17 18 19 20 21 22 23 24 25 26 27 28 29 30 31 32 33 34 35 36 37 38 39 40 41 42 43 44 45 46 47 48 49 50
000
ASUS43 KOAX 190110
RWRNE

WEATHER ROUNDUP FOR NEBRASKA
NATIONAL WEATHER SERVICE OMAHA NE
800 PM CDT WED OCT 18 2017

NOTES: SATELLITE DATA IS BEING USED TO AUGMENT CLOUD COVER ABOVE
       12000 FEET.
       "FAIR" INDICATES FEW OR NO CLOUDS BELOW 12,000 FEET WITH NO
       SIGNIFICANT WEATHER AND/OR OBSTRUCTIONS TO VISIBILITY.


NEZ001>004-019>022-054>056-190200-
NEBRASKA PANHANDLE

CITY           SKY/WX    TMP DP  RH WIND       PRES   REMARKS
SCOTTSBLUFF    CLEAR     53  29  39 SE10      30.07S
ALLIANCE       CLEAR     49  31  49 SE12      30.07F
CHADRON        CLEAR     57  29  34 S10       30.01F
GORDON         FAIR      56  31  38 S7        30.06F
KIMBALL        CLEAR     50  25  37 SE7       30.13S
SIDNEY         CLEAR     48  28  46 SE8       30.12R
$$

NEZ057>060-069>072-079>082-190200-
SOUTHWEST NEBRASKA

CITY           SKY/WX    TMP DP  RH WIND       PRES   REMARKS
NORTH PLATTE   CLEAR     52  35  52 CALM      30.10R
IMPERIAL       CLEAR     53  31  42 E8        30.10S
LEXINGTON      CLEAR     56  38  52 N5        30.09R
MCCOOK         CLEAR     56  35  45 NE9       30.09R
OGALLALA       CLEAR     55  33  43 E5        30.10S
$$

NEZ005>010-023>029-035>040-094-190200-
NORTH CENTRAL NEBRASKA

CITY           SKY/WX    TMP DP  RH WIND       PRES   REMARKS
VALENTINE      CLEAR     53  31  42 SE6       30.07S
AINSWORTH      CLEAR     48  37  66 CALM      30.09R
BROKEN BOW     CLEAR     47  38  71 N3        30.08R
O`NEILL        CLEAR     55  37  51 CALM      30.07S
ORD            CLEAR     48  36  63 NW5       30.06R
THEDFORD       CLEAR     55  32  43 CALM      30.11R
$$

NEZ041-046>049-061>064-073>077-083>087-190200-
SOUTH CENTRAL NEBRASKA

CITY           SKY/WX    TMP DP  RH WIND       PRES   REMARKS
GRAND ISLAND   CLEAR     56  40  55 N7        30.06R
AURORA         CLEAR     57  38  49 N8        30.05R
HASTINGS       CLEAR     58  38  47 N6        30.06R
HEBRON         CLEAR     62  49  62 CALM      30.02R
HOLDREGE       CLEAR     55  37  51 N6        30.08R
KEARNEY        CLEAR     57  37  47 N8        30.08R
YORK           CLEAR     55  41  58 N7        30.04R
$$

NEZ011>018-030>034-042>045-190200-
NORTHEAST NEBRASKA

CITY           SKY/WX    TMP DP  RH WIND       PRES   REMARKS
NORFOLK        CLEAR     57  38  48 N5        30.03S
ALBION         CLEAR     56  39  51 N7        30.06R
BLAIR          CLEAR     64  46  53 N8        30.01R
COLUMBUS       CLEAR     54  40  59 CALM      30.05R
FREMONT        CLEAR     63  43  48 CALM      30.03R
TEKAMAH        CLEAR     54  44  69 N7        30.02R
WAYNE          CLEAR     53  37  56 CALM      30.04R
$$

NEZ050>053-065>068-078-088>093-190200-
SOUTHEAST NEBRASKA

CITY           SKY/WX    TMP DP  RH WIND       PRES   REMARKS
LINCOLN        CLEAR     59  45  59 N7        30.02R
OMAHA EPPLEY   CLEAR     61  46  57 N8        30.01R
BEATRICE       CLEAR     63  51  64 CALM      30.00R
FALLS CITY     CLEAR     63  50  62 CALM      30.00R
NEBRASKA CITY  CLEAR     62  50  64 S6        30.01R
PLATTSMOUTH    CLEAR     64  50  61 S5        30.01R
$$

NEZ044-045-051>053-067-190200-
OMAHA AREA

CITY           SKY/WX    TMP DP  RH WIND       PRES   REMARKS
OMAHA EPPLEY   CLEAR     61  46  57 N8        30.01R
BLAIR          CLEAR     64  46  53 N8        30.01R
FREMONT        CLEAR     63  43  48 CALM      30.03R
MILLARD        CLEAR     69  48  47 N5        30.01R
OFFUTT AFB     CLEAR     66  48  51 NE6       30.00R
PLATTSMOUTH    CLEAR     64  50  61 S5        30.01R
WAHOO          FAIR      58  43  56 N6        30.02R
$$




USA.gov is the U.S. government's official web portal to all federal, state and local government web resources and services.